This demonstration page uses our WeatherBlox Daily Observations layout. Learn more.

Left ArrowRight Arrow

39.01783, -85.05884

Hourly Observations for March 4, 2018

Temp ( °F °C ) Dew Point ( °F °C ) Humidity (%) Winds ( mph kmh ) Pressure ( in mb ) Visibility ( mi km ) Precip ( " mm )
12:52 am 00:52 Clear 34 1.1 21 -6.1 59 59 NE 13 20 30.43 1030 10 16 N/A
1:52 am 01:52 Clear 34 1.1 17 -8.3 50 50 ENE 13 20 30.43 1031 10 16 N/A
2:52 am 02:52 Clear 33 0.6 19 -7.2 56 56 ENE 12 19 30.42 1030 10 16 N/A
3:52 am 03:52 Clear 32 undefined 18 -7.8 56 56 ENE 10 17 30.41 1030 10 16 N/A
4:52 am 04:52 Clear 31 -0.6 19 -7.2 61 61 NE 9 15 30.42 1030 10 16 N/A
5:52 am 05:52 Clear 31 -0.6 19 -7.2 61 61 NE 12 19 30.44 1031 10 16 N/A
6:52 am 06:52 Clear 30 -1.1 20 -6.7 66 66 NNE 8 13 30.46 1031 10 16 N/A
7:52 am 07:52 Sunny 31 -0.6 21 -6.1 67 67 ENE 10 17 30.46 1032 10 16 N/A
8:52 am 08:52 Sunny 33 0.6 22 -5.6 64 64 ENE 12 19 30.46 1031 10 16 N/A
9:52 am 09:52 Sunny 37 2.8 23 -5 57 57 ENE 12 19 30.45 1031 10 16 N/A
10:52 am 10:52 Sunny 39 3.9 24 -4.4 55 55 NE 7 11 30.44 1031 10 16 N/A
11:52 am 11:52 Sunny 42 5.6 25 -3.9 51 51 E 6 9 30.42 1030 10 16 N/A
12:52 pm 12:52 Mostly Sunny 45 7.2 22 -5.6 40 40 NE 10 17 30.40 1029 10 16 N/A
1:52 pm 13:52 Mostly Sunny 48 8.9 22 -5.6 36 36 NE 10 17 30.36 1028 10 16 N/A
2:52 pm 14:52 Mostly Sunny 49 9.4 21 -6.1 33 33 NNE 9 15 30.34 1028 10 16 N/A
3:52 pm 15:52 Mostly Sunny 49 9.4 20 -6.7 32 32 NNE 12 19 30.32 1027 10 16 N/A
4:52 pm 16:52 Sunny 49 9.4 20 -6.7 32 32 NE 13 20 30.30 1026 10 16 N/A
5:52 pm 17:52 Sunny 47 8.3 23 -5 39 39 NE 14 22 30.29 1026 10 16 N/A
6:52 pm 18:52 Clear 44 6.7 23 -5 43 43 ENE 13 20 30.30 1026 10 16 N/A
7:52 pm 19:52 Clear 42 5.6 24 -4.4 49 49 ENE 14 22 30.30 1026 10 16 N/A
8:52 pm 20:52 Clear 41 5 24 -4.4 51 51 ENE 12 19 30.30 1026 10 16 N/A
9:52 pm 21:52 Clear 40 4.4 24 -4.4 53 53 ENE 12 19 30.30 1026 10 16 N/A
10:52 pm 22:52 Partly Cloudy 39 3.9 24 -4.4 55 55 ENE 12 19 30.29 1026 10 16 N/A
11:52 pm 23:52 Partly Cloudy 38 3.3 23 -5 55 55 ENE 12 19 30.29 1026 10 16 N/A

Powered by AerisWeather